Lamar, CO

6:27 PM MST on December 10, 2016 (GMT -0700)
Lamar Municipal

Weather History for KLAA - February, 2013

Change the Weather History Date:

Tuesday, February 12, 2013

  Actual Average Record
Temperature  
Mean Temperature 30 °F 33 °F  
Max Temperature 48 °F 49 °F 80 °F (1962)
Min Temperature 12 °F 17 °F -11 °F (1948)
Degree Days  
Heating Degree Days 35 32  
Month to date heating degree days 344 399  
Since 1 July heating degree days 3563 3830  
Cooling Degree Days 0 0  
Month to date cooling degree days 0 0  
Year to date cooling degree days 0 0  
Moisture  
Dew Point 5 °F    
Average Humidity 43    
Maximum Humidity 73    
Minimum Humidity 13    
Precipitation  
Precipitation 0.00 in 0.01 in 0.35 in (1950)
Month to date precipitation T 0.17  
Year to date precipitation 0.02 0.47  
Sea Level Pressure  
Sea Level Pressure 30.07 in    
Wind  
Wind Speed 7 mph (West)    
Max Wind Speed 15 mph    
Max Gust Speed 20 mph    
Visibility 10 miles    
Events      
T = Trace of Precipitation, MM = Missing Value Source: NWS Daily Summary

Daily Weather History Graph

Daily Weather History Graph

Search for Another Location

Airport or City:

Trip Planner

Search our weather history database for the weather conditions in past years. The results will help you decide how hot, cold, wet, or windy it might be!

Date:

Astronomy

Feb. 12, 2013 Rise Set
Actual Time 6:43 AM MST 5:26 PM MST
Civil Twilight 6:16 AM MST 5:53 PM MST
Nautical Twilight 5:45 AM MST 6:24 PM MST
Astronomical Twilight 5:15 AM MST 6:55 PM MST
Moon 7:45 AM MST (2/12) 8:25 PM MST (2/12)
Length of Visible Light 11h 36m
Length of Day
10h 42m
Waxing Crescent, 8% of the Moon is Illuminated
Feb 12
Waxing Crescent
Feb 17
First Quarter
Feb 25
Full
Mar 4
Last Quarter
Mar 11
New

Hourly Weather History & Observations

Time (MST) Temp. Windchill Dew Point Humidity Pressure Visibility Wind Dir Wind Speed Gust Speed Precip Events Conditions
12:53 AM 25.0 °F 17.1 °F 10.9 °F 55% 30.06 in 10.0 mi East 6.9 mph - N/A   Clear
1:53 AM 24.1 °F 14.4 °F 10.9 °F 57% 30.05 in 10.0 mi ESE 9.2 mph - N/A   Clear
2:53 AM 23.0 °F 17.0 °F 10.9 °F 60% 30.04 in 10.0 mi ESE 4.6 mph - N/A   Mostly Cloudy
3:53 AM 17.1 °F 6.6 °F 8.1 °F 68% 30.05 in 10.0 mi SSW 8.1 mph - N/A   Clear
4:53 AM 14.0 °F 3.9 °F 7.0 °F 74% 30.06 in 10.0 mi WNW 6.9 mph - N/A   Clear
5:53 AM 14.0 °F 6.5 °F 6.1 °F 71% 30.08 in 10.0 mi West 4.6 mph - N/A   Clear
6:53 AM 12.9 °F 3.8 °F 5.0 °F 71% 30.10 in 10.0 mi West 5.8 mph - N/A   Clear
7:53 AM 19.9 °F 12.1 °F 8.1 °F 60% 30.12 in 10.0 mi NW 5.8 mph - N/A   Clear
8:53 AM 25.0 °F 19.3 °F 10.0 °F 53% 30.13 in 10.0 mi WNW 4.6 mph - N/A   Clear
9:53 AM 32.0 °F 24.2 °F 12.0 °F 44% 30.10 in 10.0 mi WNW 9.2 mph - N/A   Clear
10:53 AM 37.9 °F 35.5 °F 12.9 °F 36% 30.09 in 10.0 mi Variable 3.5 mph - N/A   Clear
11:53 AM 42.1 °F 38.4 °F 10.9 °F 28% 30.05 in 10.0 mi Variable 5.8 mph - N/A   Clear
12:53 PM 46.0 °F 41.0 °F -2.9 °F 13% 30.01 in 10.0 mi NNE 10.4 mph 17.3 mph N/A   Clear
1:53 PM 46.9 °F - 1.0 °F 15% 30.00 in 10.0 mi North 9.2 mph 17.3 mph N/A   Clear
2:53 PM 46.9 °F - 3.0 °F 16% 29.99 in 10.0 mi North 4.6 mph - N/A   Clear
3:53 PM 46.9 °F - 3.0 °F 16% 30.01 in 10.0 mi NW 11.5 mph - N/A   Clear
4:53 PM 44.1 °F 40.8 °F 1.9 °F 17% 30.02 in 10.0 mi NW 5.8 mph - N/A   Clear
5:53 PM 30.9 °F 23.5 °F 1.9 °F 29% 30.06 in 10.0 mi WSW 8.1 mph - N/A   Clear
6:53 PM 28.0 °F 20.8 °F 1.9 °F 33% 30.09 in 10.0 mi West 6.9 mph - N/A   Clear
7:53 PM 27.0 °F 21.6 °F -0.0 °F 31% 30.09 in 10.0 mi WSW 4.6 mph - N/A   Clear
8:53 PM 23.0 °F 14.7 °F -0.9 °F 35% 30.10 in 10.0 mi SSW 6.9 mph - N/A   Clear
9:53 PM 17.1 °F 10.0 °F -2.9 °F 41% 30.10 in 10.0 mi SW 4.6 mph - N/A   Clear
10:53 PM 21.0 °F 14.6 °F -0.9 °F 38% 30.07 in 10.0 mi WSW 4.6 mph - N/A   Clear
11:53 PM 12.9 °F 1.6 °F -2.0 °F 51% 30.09 in 10.0 mi SW 8.1 mph - N/A   Clear